Regional Weather Roundup
Issued by NWS

Home | Current Version | Previous Version | Graphics & Text | Print | Product List | Glossary On
Versions: 1 2 3 4 5 6 7 8 9 10 11 12 13 14 15 16 17 18 19 20 21 22 23 24 25 26 27 28 29 30 31 32 33 34 35 36 37 38 39 40 41 42 43 44 45 46 47 48 49 50
000
ASUS43 KLSX 212107
RWRMO

WEATHER SUMMARY FOR MISSOURI
NATIONAL WEATHER SERVICE SPRINGFIELD MO
300 PM CST TUE NOV 21 2017

NOTE: "FAIR" INDICATES FEW OR NO CLOUDS BELOW 12,000 FEET WITH NO
       SIGNIFICANT WEATHER AND/OR OBSTRUCTIONS TO VISIBILITY.
       CURRENT SKY AND/OR WEATHER CONDITIONS ARE NOT AVAILABLE FOR
       CHILLICOTHE AND FARMINGTON.

MOZ001>031-035>038-043-044-053-054-212200-
...NORTHERN AND WESTERN MISSOURI...

CITY           SKY/WX    TMP DP  RH WIND       PRES   REMARKS
KANSAS CTY INT SUNNY     44  14  29 NW21G29   30.19R
KANSAS C DTWN  SUNNY     48  10  21 N21G30    30.17R
LEE`S SUMMIT   SUNNY     48  11  22 N20G29    30.16R
ST JOSEPH      SUNNY     40  15  36 NW20G30   30.24R
CHILLICOTHE      N/A     46  19  34 NW12G20   30.17R
KIRKSVILLE     SUNNY     42  19  39 NW15G22   30.13R

$$
MOZ066>068-077>081-088>096-101>105-212200-
...SOUTHWEST MISSOURI...

CITY           SKY/WX    TMP DP  RH WIND       PRES   REMARKS
SPRINGFIELD    SUNNY     57  34  41 N17       30.05R
JOPLIN         SUNNY     57  35  43 N20G29    30.09R
BRANSON        MOSUNNY   57  34  41 N12       30.02R

$$
MOZ032>034-039>042-045>050-055>058-069>072-212200-
...CENTRAL MISSOURI...

CITY           SKY/WX    TMP DP  RH WIND       PRES   REMARKS
COLUMBIA       MOSUNNY   50  23  34 NW17      30.08R
JEFFERSON CITY MOSUNNY   52  22  30 N14       30.09R
ROLLA          CLOUDY    53  32  44 N14G23    30.04R
SEDALIA        SUNNY     52  19  27 N20G26    30.12R
WHITEMAN AFB   MOSUNNY   51  20  29 NW20      30.08R
WARRENSBURG    SUNNY     50  19  29 NW15G31   30.13R
OSAGE BEACH    MOSUNNY   53  31  42 N9G22     30.08R

$$
MOZ051-052-059>065-212200-
...EAST CENTRAL MISSOURI...

CITY           SKY/WX    TMP DP  RH WIND       PRES   REMARKS
ST LOUIS INTL  CLOUDY    50  29  44 NW15      30.03R
SPIRIT OF STL  CLOUDY    53  33  46 N9        30.03R
ST CHARLES     CLOUDY    50  26  39 NW14      30.04R

$$
MOZ072>076-082>087-097>100-106>115-212200-
...SOUTH CENTRAL AND SOUTHEAST MISSOURI...

CITY           SKY/WX    TMP DP  RH WIND       PRES   REMARKS
CAPE GIRARDEAU CLOUDY    55  40  56 S9        29.99R
FARMINGTON     SUNNY     58  35  42 NW6       29.99R
POPLAR BLUFF   MOSUNNY   57  40  52 S8        29.99R
WEST PLAINS    CLOUDY    59  34  39 NW7       30.00R

$$


USA.gov is the U.S. government's official web portal to all federal, state and local government web resources and services.